Terminal Aerodrome Forecast
Issued by NWS Jackson, MS

Home | Current Version | Previous Version | Text Only | Print | Product List | Glossary On
Versions: 1 2 3 4 5 6 7 8 9 10 11 12 13 14 15 16 17 18
000
FTUS44 KJAN 231720
TAFMEI
TAF
KMEI 231720Z 2318/2418 17005KT P6SM BKN015
     FM231900 17005KT P6SM FEW050 SCT250
     FM240700 18005KT P6SM SCT015 BKN250
     FM240900 19004KT 3SM BR OVC007=

USA.gov is the U.S. government's official web portal to all federal, state and local government web resources and services.